{"data":{"norad_id":69954,"epoch":"2026-09-18T22:23:51.631008Z","epoch_age_seconds":153205,"freshness":"FRESH","line1":"1 69954U 26157M   26261.93323647 -.00003367  00000+0 -88568-4 0  9997","line2":"2 69954  53.1599 340.9580 0001304  95.3086 264.8065 15.34393355 11133","mean_motion":15.34393355,"eccentricity":0.0001304,"inclination_deg":53.1599,"raan_deg":340.958,"arg_perigee_deg":95.3086,"mean_anomaly_deg":264.8065,"bstar":-8.8568e-5,"rev_number":1113,"period_min":93.848164507986,"perigee_km":461.83094247598,"apogee_km":463.61503876153,"semimajor_km":6840.8599906188,"source":"CELESTRAK","updated_at":"2026-09-20T09:00:44.300973Z"}}